Regional Weather Roundup
Issued by NWS

Home | Current Version | Previous Version | Text Only | Print | Product List | Glossary Off
Versions: 1 2 3 4 5 6 7 8 9 10 11 12 13 14 15 16 17 18 19 20 21 22 23 24 25 26 27 28 29 30 31 32 33 34 35 36 37 38 39 40 41 42 43 44 45 46 47 48 49 50

375
ASUS43 KDMX 261806
RWRIA

WEATHER ROUNDUP FOR IOWA
NATIONAL WEATHER SERVICE DES MOINES IA
1200 PM CST SUN FEB 26 2017

NOTE: "FAIR" INDICATES FEW OR NO CLOUDS BELOW 12,000 FEET WITH NO
SIGNIFICANT WEATHER AND/OR OBSTRUCTIONS TO VISIBILITY.

* - THESE STATIONS ARE NOT NWS STATIONS...THUS NOT UNDER NWS
QUALITY CONTROL.  THEY ALSO DO NOT REPORT WEATHER SUCH
AS PRECIPITATION OR FOG.

IAZ001>003-012>014-020>022-031>034-043>046-261900-
   NORTHWEST IOWA

CITY           SKY/WX    TMP DP  RH WIND       PRES   REMARKS
CARROLL *      SUNNY     32  21  64 W15       29.93R WCI  22
CHEROKEE *     SUNNY     28  20  71 SW7       29.91R WCI  21
DENISON *      SUNNY     30  18  59 W9        29.91S WCI  22
LE MARS *      SUNNY     30  21  69 W7        29.93R WCI  23
SHELDON *      SUNNY     28  28 100 W8        29.87R WCI  20
SIOUX CITY     SUNNY     31  19  61 W8        29.93S WCI  23
6HR MIN TEMP:  13; 6HR MAX TEMP:  31;

SPENCER        SUNNY     30  23  75 W10       29.88R WCI  21
6HR MIN TEMP:  11; 6HR MAX TEMP:  30;

STORM LAKE *   SUNNY     27  19  74 W15       29.88S WCI  15
$$

IAZ055>058-069>071-079>083-090>094-261900-
   SOUTHWEST IOWA

CITY           SKY/WX    TMP DP  RH WIND       PRES   REMARKS
ATLANTIC *     SUNNY     39  25  56 W14       29.95R WCI  31
AUDUBON *      SUNNY     36  23  60 SW13      29.94S WCI  27
CLARINDA *     SUNNY     46  28  49 W10G18    29.98F
COUNCIL BLFS * SUNNY     37  21  52 W9G15     29.95R WCI  31
CRESTON *      SUNNY     45  25  45 SW18G24   29.95S
HARLAN  *      SUNNY     32  23  69 W14       29.98R WCI  22
LAMONI         MOSUNNY   48  29  47 SW23G30   29.95F
6HR MIN TEMP:  30; 6HR MAX TEMP:  48;

RED OAK *      SUNNY     45  23  42 W16G25    29.95F
SHENANDOAH *   SUNNY     46  28  49 W13G18    29.96F
$$

IAZ047>049-059>061-072>074-084-261900-
   CENTRAL IOWA

CITY           SKY/WX    TMP DP  RH WIND       PRES   REMARKS
AMES           SUNNY     38  32  79 W15       29.92R WCI  29
6HR MIN TEMP:  26; 6HR MAX TEMP:  38;

ANKENY *       SUNNY     45  25  45 W17G24    29.94R
BOONE *        SUNNY     36  23  60 SW20      29.91R WCI  25
CHARITON *     SUNNY     46  27  46 SW18G30   29.94S
DES MOINES     MOSUNNY   46  26  45 W26       29.92S
6HR MIN TEMP:  29; 6HR MAX TEMP:  47;

GRINNELL*      SUNNY     43  28  56 SW16      29.93F
KNOXVILLE *    SUNNY     46  23  39 W23G31    29.92S
MARSHALLTOWN   SUNNY     40  27  59 W20       29.91R WCI  30
6HR MIN TEMP:  27; 6HR MAX TEMP:  40;

NEWTON *       SUNNY     43  27  52 W16G24    29.92S
PELLA *        SUNNY     47  23  40 SW15G24   29.94F
PERRY *          N/A     36  27  71 W15G22    29.94R WCI  27
$$

IAZ004>006-015-016-023>025-035-036-261900-
   NORTH CENTRAL IOWA

CITY           SKY/WX    TMP DP  RH WIND       PRES   REMARKS
ALGONA *       SUNNY     28  23  80 W6        29.88R WCI  22
CLARION *      SUNNY     28  23  80 SW13      29.89F WCI  18
ESTHERVILLE    SUNNY     30  24  78 W12       29.85R WCI  20
6HR MIN TEMP:  15; 6HR MAX TEMP:  30;

FORT DODGE *   SUNNY     30  19  64 SW10      29.91S WCI  21
MASON CITY     SUNNY     29  21  72 SW14      29.87S WCI  18
6HR MIN TEMP:  23; 6HR MAX TEMP:  29;

FOREST CITY *    N/A     32  21  64 W8        29.87R WCI  25
WEBSTER CITY * SUNNY     30  21  69 W14       29.89S WCI  20
IOWA FALLS *     N/A     34  25  68 SW16      29.92R WCI  24
$$

IAZ007>011-017>019-026>030-037>042-050>054-066-261900-
   NORTHEAST IOWA

CITY           SKY/WX    TMP DP  RH WIND       PRES   REMARKS
CEDAR RAPIDS   SUNNY     43  28  55 SW15      29.91F
6HR MIN TEMP:  28; 6HR MAX TEMP:  43;

CHARLES CITY * SUNNY     32  25  74 SW12      29.87S WCI  23
CLINTON *      SUNNY     44  27  51 W22G28    29.94S
DECORAH *      SUNNY     34  23  64 SW8       29.85S WCI  27
DUBUQUE        SUNNY     38  27  64 W17       29.90R WCI  28
6HR MIN TEMP:  27; 6HR MAX TEMP:  38;

MONTICELLO *   SUNNY     43  28  56 SW14      29.91S
OELWEIN *      SUNNY     37  30  75 SW12      29.89S WCI  30
WATERLOO       SUNNY     38  27  64 SW16      29.90R WCI  29
6HR MIN TEMP:  27; 6HR MAX TEMP:  38;

$$

IAZ064-065-067-068-078-261900-
   EAST CENTRAL IOWA

CITY           SKY/WX    TMP DP  RH WIND       PRES   REMARKS
DAVENPORT      SUNNY     44  25  47 W22G28    29.95F
6HR MIN TEMP:  29; 6HR MAX TEMP:  44;

IOWA CITY      SUNNY     46  24  42 SW13      29.95F
6HR MIN TEMP:  31; 6HR MAX TEMP:  46;

MUSCATINE *    SUNNY     46  19  34 W18G26    29.96F
QUAD CITIES    SUNNY     46  23  40 SW20G29   29.96F
6HR MIN TEMP:  31; 6HR MAX TEMP:  47;

$$

IAZ062-063-075>077-085>089-095>099-261900-
   SOUTHEAST IOWA

CITY           SKY/WX    TMP DP  RH WIND       PRES   REMARKS
BURLINGTON     SUNNY     49  25  39 SW16G23   29.98F
6HR MIN TEMP:  31; 6HR MAX TEMP:  49;

FAIRFIELD *    SUNNY     48  25  40 W17G25    29.95F
KEOKUK *       MOSUNNY   50  21  32 SW21G28   29.99S
CENTERVILLE *    N/A     46  28  49 SW23      29.98S
OTTUMWA        SUNNY     49  26  41 SW21G26   29.94F
6HR MIN TEMP:  32; 6HR MAX TEMP:  49;

WASHINGTON *   SUNNY     46  25  42 SW17G25   29.96F
$$

ABBREVIATIONS USED IN REMARKS
   TC - TEMPERATURES IN CELSIUS
  WCI - WIND CHILL INDEX
   HX - HEAT INDEX
  VSB - VISIBILITY
$$





USA.gov is the U.S. government's official web portal to all federal, state and local government web resources and services.